Time,TemperatureF,DewpointF,PressureIn,WindDirection,WindDirectionDegrees,WindSpeedMPH,WindSpeedGustMPH,Humidity,HourlyPrecipIn,Conditions,Clouds,dailyrainin,SoftwareType,DateUTC
2013-04-25 00:01:00,37.4,25.9,30.15,ENE,75,0.0,3.0,63,0.00,CLR,,0.00,WeatherDisplay:10.37,2013-04-25 05:01:00,
2013-04-25 00:31:00,36.1,25.1,30.15,ENE,75,0.0,1.0,64,0.00,CLR,,0.00,WeatherDisplay:10.37,2013-04-25 05:31:00,
2013-04-25 01:01:00,35.9,26.0,30.14,ENE,75,0.0,1.0,67,0.00,CLR,,0.00,WeatherDisplay:10.37,2013-04-25 06:01:00,
2013-04-25 01:31:00,36.5,26.2,30.10,ENE,76,0.0,3.0,66,0.00,CLR,,0.00,WeatherDisplay:10.37,2013-04-25 06:31:00,
2013-04-25 02:01:00,34.4,25.6,30.12,ENE,76,0.0,2.0,70,0.00,CLR,,0.00,WeatherDisplay:10.37,2013-04-25 07:01:00,
2013-04-25 02:32:00,33.2,24.8,30.09,ENE,76,0.0,2.0,71,0.00,CLR,,0.00,WeatherDisplay:10.37,2013-04-25 07:32:00,
2013-04-25 03:01:00,32.8,24.8,30.08,ENE,76,0.0,3.0,72,0.00,CLR,,0.00,WeatherDisplay:10.37,2013-04-25 08:01:00,
2013-04-25 03:31:00,33.8,25.4,30.06,ENE,76,0.0,4.0,71,0.00,CLR,,0.00,WeatherDisplay:10.37,2013-04-25 08:31:00,
2013-04-25 04:01:00,33.4,25.7,30.07,ENE,76,0.0,3.0,73,0.00,CLR,,0.00,WeatherDisplay:10.37,2013-04-25 09:01:00,
2013-04-25 04:31:00,32.5,25.8,30.06,ENE,76,0.0,3.0,76,0.00,CLR,,0.00,WeatherDisplay:10.37,2013-04-25 09:31:00,
2013-04-25 05:01:00,32.8,25.1,30.05,ENE,76,0.0,3.0,73,0.00,CLR,,0.00,WeatherDisplay:10.37,2013-04-25 10:01:00,
2013-04-25 05:31:00,33.4,26.6,30.05,ENE,76,0.0,3.0,76,0.00,CLR,,0.00,WeatherDisplay:10.37,2013-04-25 10:31:00,
2013-04-25 06:01:00,32.5,26.4,30.04,ENE,76,0.0,2.0,78,0.00,CLR,,0.00,WeatherDisplay:10.37,2013-04-25 11:01:00,
2013-04-25 06:31:00,32.2,26.7,30.05,ENE,76,0.0,2.0,80,0.00,CLR,,0.00,WeatherDisplay:10.37,2013-04-25 11:31:00,
2013-04-25 07:01:00,39.3,36.1,30.02,ENE,76,1.0,4.0,88,0.00,CLR,,0.00,WeatherDisplay:10.37,2013-04-25 12:01:00,
2013-04-25 07:31:00,40.2,31.9,30.05,NE,47,0.0,6.0,72,0.00,CLR,,0.00,WeatherDisplay:10.37,2013-04-25 12:31:00,
2013-04-25 08:01:00,39.2,32.6,30.06,NE,44,0.0,3.0,77,0.00,CLR,,0.00,WeatherDisplay:10.37,2013-04-25 13:01:00,
2013-04-25 08:31:00,49.9,42.6,30.02,ENE,60,6.0,10.0,76,0.00,CLR,,0.00,WeatherDisplay:10.37,2013-04-25 13:31:00,
2013-04-25 09:01:00,58.8,44.1,29.97,ESE,123,7.0,13.0,58,0.00,CLR,,0.00,WeatherDisplay:10.37,2013-04-25 14:01:00,
2013-04-25 09:32:00,60.4,43.7,30.01,ESE,110,6.0,16.0,54,0.00,CLR,,0.00,WeatherDisplay:10.37,2013-04-25 14:32:00,
2013-04-25 10:02:00,62.3,43.9,30.00,ENE,63,3.0,16.0,51,0.00,CLR,,0.00,WeatherDisplay:10.37,2013-04-25 15:02:00,
2013-04-25 10:32:00,63.9,44.4,30.03,ENE,57,6.0,12.0,49,0.00,CLR,,0.00,WeatherDisplay:10.37,2013-04-25 15:32:00,
2013-04-25 11:02:00,63.9,42.1,30.05,ENE,78,7.0,18.0,45,0.00,CLR,,0.00,WeatherDisplay:10.37,2013-04-25 16:02:00,
2013-04-25 11:32:00,64.8,42.3,30.04,NW,318,8.0,14.0,44,0.00,CLR,,0.00,WeatherDisplay:10.37,2013-04-25 16:32:00,
2013-04-25 12:02:00,66.3,42.5,30.05,ENE,67,1.0,18.0,42,0.00,CLR,,0.00,WeatherDisplay:10.37,2013-04-25 17:02:00,
2013-04-25 12:32:00,66.9,42.4,30.02,East,87,3.0,21.0,41,0.00,CLR,,0.00,WeatherDisplay:10.37,2013-04-25 17:32:00,
2013-04-25 13:02:00,67.5,41.0,30.02,SW,214,7.0,25.0,38,0.00,CLR,,0.00,WeatherDisplay:10.37,2013-04-25 18:02:00,
2013-04-25 13:33:00,69.2,42.5,30.02,SSW,194,2.0,25.0,38,0.00,CLR,,0.00,WeatherDisplay:10.37,2013-04-25 18:33:00,
2013-04-25 14:02:00,69.8,41.7,29.99,SW,227,9.0,25.0,36,0.00,CLR,,0.00,WeatherDisplay:10.37,2013-04-25 19:02:00,
2013-04-25 14:32:00,71.3,40.7,29.97,West,276,9.0,22.0,33,0.00,CLR,,0.00,WeatherDisplay:10.37,2013-04-25 19:32:00,
2013-04-25 15:02:00,72.3,39.1,29.97,SW,225,13.0,20.0,30,0.00,CLR,,0.00,WeatherDisplay:10.37,2013-04-25 20:02:00,
2013-04-25 15:32:00,73.2,38.1,29.94,South,178,10.0,26.0,28,0.00,CLR,,0.00,WeatherDisplay:10.37,2013-04-25 20:32:00,
2013-04-25 16:02:00,73.9,36.8,29.92,East,96,14.0,24.0,26,0.00,CLR,,0.00,WeatherDisplay:10.37,2013-04-25 21:02:00,
2013-04-25 16:32:00,74.9,35.7,29.89,South,182,5.0,20.0,24,0.00,CLR,,0.00,WeatherDisplay:10.37,2013-04-25 21:32:00,
2013-04-25 17:02:00,76.0,34.4,29.85,SE,142,3.0,25.0,22,0.00,CLR,,0.00,WeatherDisplay:10.37,2013-04-25 22:02:00,
2013-04-25 17:31:00,75.6,32.9,29.85,West,264,3.0,20.0,21,0.00,CLR,,0.00,WeatherDisplay:10.37,2013-04-25 22:31:00,
2013-04-25 18:01:00,75.4,31.5,29.87,SSW,213,12.0,21.0,20,0.00,CLR,,0.00,WeatherDisplay:10.37,2013-04-25 23:01:00,
2013-04-25 18:31:00,74.9,29.8,29.79,SSW,192,9.0,20.0,19,0.00,CLR,,0.00,WeatherDisplay:10.37,2013-04-25 23:31:00,
2013-04-25 19:01:00,73.8,28.9,29.78,WSW,250,10.0,29.0,19,0.00,CLR,,0.00,WeatherDisplay:10.37,2013-04-26 00:01:00,
2013-04-25 19:31:00,72.1,32.2,29.79,WSW,242,12.0,30.0,23,0.00,CLR,,0.00,WeatherDisplay:10.37,2013-04-26 00:31:00,
2013-04-25 20:01:00,70.1,32.6,29.78,SW,221,7.0,28.0,25,0.00,CLR,,0.00,WeatherDisplay:10.37,2013-04-26 01:01:00,
2013-04-25 20:31:00,69.4,33.0,29.72,South,173,3.0,25.0,26,0.00,CLR,,0.00,WeatherDisplay:10.37,2013-04-26 01:31:00,
2013-04-25 21:01:00,67.6,34.2,29.73,SW,215,7.0,25.0,29,0.00,CLR,,0.00,WeatherDisplay:10.37,2013-04-26 02:01:00,
2013-04-25 21:31:00,66.8,34.4,29.71,South,180,9.0,30.0,30,0.00,CLR,,0.00,WeatherDisplay:10.37,2013-04-26 02:31:00,
2013-04-25 22:01:00,66.4,34.8,29.74,SSW,202,13.0,26.0,31,0.00,CLR,,0.00,WeatherDisplay:10.37,2013-04-26 03:01:00,
2013-04-25 22:31:00,66.1,35.4,29.73,SSW,211,12.0,22.0,32,0.00,CLR,,0.00,WeatherDisplay:10.37,2013-04-26 03:31:00,
2013-04-25 23:01:00,65.6,35.7,29.74,SSW,203,13.0,25.0,33,0.00,CLR,,0.00,WeatherDisplay:10.37,2013-04-26 04:01:00,
2013-04-25 23:31:00,66.8,36.0,29.73,South,181,12.0,24.0,32,0.00,CLR,,0.00,WeatherDisplay:10.37,2013-04-26 04:31:00,